Location: Shades State Park
(39.9310°N, 87.0690°W)
Time: 03:00:28
(UTC-04:00)

Daily predictions for brighter satellites

Satellite Brightness Start Highest point End
(mag) Time Altitude Azimuth Time Altitude Azimuth Time Altitude Azimuth
Cosmos 2263 Rocket 3.4 00:03:46 10° NNW 00:07:11 39° NNW 00:07:11 39° NNW
Cosmos 2322 Rocket 3.5 00:14:22 35° NW 00:14:22 35° NW 00:19:08 10° N
ATLAS CENTAUR R/B 4.2 00:42:26 78° E 00:42:26 78° E 01:03:49 10° NE
USA 215 4.4 00:50:35 35° WNW 00:50:35 35° WNW 00:54:19 10° NW
Cosmos 2278 Rocket 4.3 00:52:20 10° N 00:54:50 21° NNE 00:54:50 21° NNE
Cosmos 2360 Rocket 4.3 01:27:34 22° NNW 01:27:34 22° NNW 01:30:26 10° N
Cosmos 2219 Rocket 4.3 01:49:28 21° NNE 01:49:28 21° NNE 01:51:19 10° NNE
SL-16 R/B 4.5 02:05:24 18° NE 02:05:24 18° NE 02:06:51 10° NE
Cosmos 2237 Rocket 4.2 02:08:49 23° NNE 02:08:49 23° NNE 02:10:56 10° NNE
Cosmos 2333 Rocket 4.2 02:09:43 25° N 02:09:43 25° N 02:12:02 10° NNE
ATLAS 3B R/B 3.7 02:10:14 46° NNE 02:10:14 46° NNE 02:15:12 10° NNE
CZ-4C R/B 4.5 02:21:12 18° NE 02:21:12 18° NE 02:22:44 10° NE
USA 238 DEB 4.3 03:05:39 52° N 03:05:39 52° N 03:10:58 10° NNE
USA 238 4.3 03:05:46 52° N 03:05:46 52° N 03:11:04 10° NNE
NOSS 3-2 (A) 4.4 03:20:43 44° NE 03:20:43 44° NE 03:25:15 10° NE
Cosmos 2369 Rocket 3.7 03:19:19 10° N 03:24:16 31° ENE 03:24:38 31° ENE
CENTAUR R/B 4.5 03:32:55 16° ESE 03:33:12 16° ESE 03:36:56 10° ENE
Resurs 1-4 Rocket 4.1 03:30:05 10° NE 03:33:46 21° E 03:33:46 21° E
Centaur D-1A AC-31 4.0 02:23:46 10° WSW 03:38:21 39° SSE 03:42:48 10° ESE
NOSS 3-2 (C) 4.0 03:37:46 54° ENE 03:37:46 54° ENE 03:42:54 10° NE
SL-16 R/B 3.9 03:47:17 24° NNW 03:47:17 24° NNW 03:50:33 10° N
ATLAS 3B R/B 4.5 03:57:28 20° WNW 03:59:34 23° NW 04:05:10 10° NNE
Cosmos 839 Rocket 4.3 03:56:26 10° NNW 04:04:40 82° ENE 04:06:15 58° SE
CZ-4C R/B 3.5 04:06:22 30° NNW 04:06:22 30° NNW 04:11:15 10° NNE
S3M 4.5 04:15:04 48° NW 04:15:04 48° NW 04:20:11 10° N
ATLAS 5 CENTAUR R/B 2.7 04:15:17 44° E 04:15:17 44° E 04:19:20 10° NE
Meteor 1-27 4.4 04:19:06 65° N 04:19:06 65° N 04:23:52 10° N
Meteor 2-10 4.4 04:20:36 64° E 04:20:38 64° E 04:26:00 10° NNE
IRAS Rocket 4.3 04:19:07 10° N 04:24:12 67° NNW 04:24:12 67° NNW
SL-16 R/B 2.5 04:23:32 54° SE 04:25:00 78° ENE 04:31:12 10° N
Cosmos 1302 Rocket 4.2 04:23:17 10° NNW 04:28:32 67° ENE 04:28:59 64° ESE
EO 1 Del DPAF 4.5 04:35:15 42° NE 04:35:15 42° NE 04:38:26 10° N
UNKNOWN OBJECT B 4.1 04:34:09 10° NNE 04:36:50 37° ENE 04:36:50 37° ENE
IRS-1D 3.5 04:32:44 10° NNE 04:37:54 84° NW 04:37:54 84° NW
Spot 4 Rocket 4.4 04:33:09 10° N 04:37:29 51° NW 04:37:29 51° NW
Cosmos 1709 Rocket 3.9 04:33:33 10° N 04:39:56 90° W 04:41:39 52° S
CZ-2D R/B 1.9 04:38:12 10° NNE 04:43:29 89° E 04:43:49 80° S
Cosmos 1869 4.0 04:44:49 51° ENE 04:44:49 51° ENE 04:48:18 10° NNE
ARIANE 5 R/B 2.5 04:40:22 10° N 04:45:27 67° WNW 04:45:27 67° WNW
SeaSat 1 3.8 04:41:08 10° ESE 04:45:39 38° ENE 04:50:12 10° N
Cosmos 1733 Rocket 3.3 04:42:59 10° N 04:47:21 65° E 04:47:36 64° ESE
Cosmos 389 Rocket 3.8 04:49:11 37° ENE 04:49:11 37° ENE 04:51:57 10° NNE
USA 234 3.2 04:42:22 10° NE 04:48:56 80° NW 04:50:41 52° WSW
ADEOS 4.3 04:46:51 10° N 04:51:10 38° NW 04:51:10 38° NW
Meteor 2-3 Rocket 4.2 04:48:50 10° NNW 04:53:32 43° WNW 04:53:32 43° WNW
Cosmos 1943 3.8 04:56:53 40° WNW 04:57:09 41° WNW 05:02:29 10° N
COSMOS 2406 3.9 04:58:36 29° SSE 05:01:17 52° ESE 05:06:52 10° NNE
UNK 4.4 05:03:37 39° NW 05:03:37 39° NW 05:06:54 10° NNW
Cosmos 2074 Rocket 4.5 04:56:25 10° N 05:02:33 60° E 05:08:42 10° SSE
Atlas Centaur 2 3.9 05:04:52 12° SSE 05:04:52 12° SSE 05:06:15 10° SE
Cosmos 2184 Rocket 4.4 05:01:27 10° N 05:07:48 64° E 05:14:05 10° SSE
Cosmos 2369 Rocket 3.3 05:03:12 10° NW 05:06:18 28° WNW 05:06:18 28° WNW
MOZ.5/SAFIR/RUBIN 5/SL-8 4.4 05:03:57 10° SSE 05:08:27 56° ENE 05:13:00 10° N
Cosmos 1455 3.0 05:12:01 40° NW 05:12:01 40° NW 05:14:58 10° N
CZ-2D R/B 3.4 05:08:27 10° N 05:12:51 83° WNW 05:13:35 61° SSW
MOS 1-B 4.3 05:07:36 10° N 05:13:23 72° WNW 05:15:33 40° SSW
Resurs 1-4 Rocket 2.4 05:09:01 10° N 05:14:02 47° WNW 05:14:50 43° W
CZ-4B R/B 3.8 05:10:06 10° NNE 05:15:16 51° E 05:19:40 14° S
Cosmos 1908 Rocket 4.0 05:12:46 10° N 05:17:07 60° E 05:21:24 10° SSE
Abrixas rocket 4.5 05:18:08 16° NNW 05:19:49 23° NNE 05:22:33 10° ENE
Cosmos 1992 Rocket 4.4 05:17:27 10° NNW 05:22:40 63° ENE 05:27:50 10° SSE
CENTAUR R/B 2.5 05:20:07 37° SW 05:22:47 80° NW 05:29:40 10° NNE
Okean O Rocket 1.7 05:19:21 10° NNE 05:23:50 79° ESE 05:26:03 30° S
Cosmos 2221 Rocket 4.3 05:20:58 15° SSE 05:24:29 51° E 05:28:47 10° NNE
ADEOS II 4.0 05:22:02 10° NE 05:26:33 28° E 05:31:02 10° SSE
SL-27 R/B 2.4 05:27:08 64° W 05:27:24 67° WNW 05:31:01 10° NNE
Cosmos 1943 Rocket 2.1 05:21:49 10° NNW 05:27:26 62° WSW 05:32:57 10° S
ARGOS Delta rocket 3.5 05:23:30 10° N 05:27:53 70° WNW 05:29:24 39° SSW
PSLV R/B 3.6 05:26:10 10° N 05:29:57 83° WNW 05:31:08 43° SSW
Okean-O 4.5 05:26:52 10° NE 05:30:45 29° E 05:34:36 10° SSE
USA 32 4.3 05:26:05 10° S 05:31:15 67° E 05:36:28 10° N
PSLV R/B 3.2 05:32:00 56° WNW 05:32:39 82° N 05:36:05 10° E
Cosmos 1408 2.6 05:29:16 10° N 05:33:01 81° E 05:36:27 12° S
Cosmos 1703 Rocket 3.7 05:30:57 19° S 05:34:10 76° E 05:38:39 10° N
Cosmos 2285 Rocket 4.0 05:32:46 10° NNW 05:39:15 86° WSW 05:45:37 10° SSE
Sich 1 Rocket 3.5 05:35:04 10° NNW 05:39:24 59° W 05:42:27 19° S
IRS-1C Rocket 4.1 05:41:17 10° N 05:46:29 62° WNW 05:50:11 19° SSW
Cosmos 1825 2.1 05:43:19 10° NNW 05:47:05 64° W 05:50:26 13° S
PAYLOAD B 4.2 05:46:54 10° N 05:52:26 71° WNW 05:57:26 12° SSW
PSLV R/B 4.1 05:49:41 10° NNE 05:54:02 59° E 05:58:21 10° S
Cosmos 1656 Rocket 3.5 05:51:14 10° NNW 05:56:39 76° WSW 06:02:02 10° SSE
ATLAS 5 CENTAUR R/B 3.3 05:56:50 17° W 05:59:22 24° NW 06:03:38 10° NNE
NAVSTAR 52 R/B(PAM-D 3.4 06:00:59 43° SE 06:00:59 43° SE 06:02:20 10° ESE
Okean 1-7 2.9 06:04:10 10° SSW 06:08:26 71° W 06:12:47 10° N
SL-16 R/B 4.0 06:08:39 15° W 06:09:14 15° W 06:12:41 10° NW
Cosmos 407 Rocket 3.5 06:04:41 10° SSW 06:09:53 84° WNW 06:15:12 10° NNE
Cosmos 1862 4.2 06:09:58 10° NNW 06:13:23 28° W 06:16:44 10° SSW
USA 129 2.1 06:14:06 26° NNW 06:14:06 26° NNW 06:14:53 10° NNW
Okean 2 Rocket 3.1 06:10:49 10° NNW 06:15:17 64° W 06:19:45 10° S
Meteor 1-26 Rocket 4.3 06:14:50 10° SSW 06:20:36 64° WNW 06:26:28 10° N
Nadezhda 1 Rocket 4.4 06:15:56 10° SSW 06:21:50 43° WNW 06:27:51 10° N
CZ-2D R/B 4.0 06:20:55 10° NW 06:22:46 12° WNW 06:24:37 10° W
SeaSat 1 3.3 06:19:01 10° SSW 06:23:12 28° WSW 06:27:25 10° NW
Feng Yun 1-1 Rocket 4.2 06:20:17 10° NNE 06:25:41 85° WNW 06:31:08 10° SSW
Cosmos 1140 Rocket 4.2 06:24:31 10° S 06:29:29 55° ESE 06:34:31 10° NNE
USA 234 4.5 06:25:48 10° NE 06:31:19 30° NNW 06:36:50 10° W
Meteor 1-14 Rocket 4.4 06:27:04 10° NNW 06:32:49 63° W 06:38:39 10° S
Cosmos 1782 Rocket 4.3 06:30:34 10° NNW 06:34:22 30° W 06:38:07 10° SSW
CZ-4B R/B 4.2 06:32:41 10° NNW 06:35:26 20° WNW 06:38:14 10° WSW
Geosat 4.1 06:30:38 10° NNE 06:35:36 62° WNW 06:40:33 10° SW
GPS 2-05 Rocket1 3.9 06:32:54 10° SW 06:35:54 31° S 06:38:51 10° ESE
Cosmos 2181 Rocket 4.1 06:30:06 10° SSW 06:36:32 75° W 06:42:57 10° N
Cosmos 2278 4.4 06:31:13 10° NNW 06:36:54 63° ENE 06:42:33 10° SE
AVUM R/B 3.9 06:34:37 10° SW 06:37:39 38° WNW 06:40:49 10° N
MOS 1 Rocket 3.4 06:36:54 10° NNE 06:41:10 71° E 06:45:27 10° S
Ariane Rocket 4.1 06:37:29 10° NNE 06:42:24 49° E 06:47:18 10° S
COSMOS 2487 3.5 06:42:03 10° SW 06:45:14 29° WNW 06:48:25 10° N
Meteor PRIRODA 4.0 06:41:40 10° N 06:45:17 46° WNW 06:48:54 10° SSW
COSMOS 2406 4.5 06:41:17 10° WSW 06:45:55 24° NW 06:50:31 10° N
